Regional Weather Roundup
Issued by NWS

Home | Current Version | Previous Version | Text Only | Print | Product List | Glossary Off
Versions: 1 2 3 4 5 6 7 8 9 10 11 12 13 14 15 16 17 18 19 20 21 22 23 24 25 26 27 28 29 30 31 32 33 34 35 36 37 38 39 40 41 42 43 44 45 46 47 48 49 50

467
ASUS45 KTFX 222010
RWRMT
MONTANA REGIONAL WEATHER ROUNDUP
NATIONAL WEATHER SERVICE GREAT FALLS MT
200 PM MDT WED MAR 22 2017

NOTE: "FAIR" INDICATES FEW OR NO CLOUDS BELOW 12000 FEET WITH NO
SIGNIFICANT WEATHER AND/OR OBSTRUCTIONS TO VISIBILITY.

MTZ001>007-043-222100-
WEST OF THE DIVIDE

CITY           SKY/WX    TMP DP  RH WIND       PRES   REMARKS
KALISPELL      CLOUDY    50  39  66 S13       29.85F
MISSOULA       PTSUNNY   53  37  54 NW9       29.87F
BUTTE          MOSUNNY   49  25  39 W6        29.86F
MULLAN PASS    MOSUNNY   41  37  86 VRB3      29.84F
ANACONDA         N/A     52  21  30 W5        29.84F
DEER LODGE       N/A     54  25  32 SE3       29.87F
EUREKA           N/A     52  36  54 SE8       29.84S
HAMILTON         N/A     55  28  35 S8        29.85S
RONAN            N/A     53  40  61 W6        29.92R
$$

MTZ008-052>055-222100-
SOUTHWEST MONTANA

CITY           SKY/WX    TMP DP  RH WIND       PRES   REMARKS
BOZEMAN        MOSUNNY   57  38  48 W5        29.81F
DILLON         CLOUDY    51  35  54 W6        29.85F
W YELLOWSTONE  CLOUDY    41  32  70 SW15G25   29.93F
ENNIS          SUNNY     57  28  33 S20G28    29.88F
THREE FORKS      N/A     59   9  14 W9        29.83F
$$

MTZ009-010-012-014-046-048-049-054-222100-
EAST SLOPES AND CENTRAL MONTANA

CITY           SKY/WX    TMP DP  RH WIND       PRES   REMARKS
CUT BANK       SUNNY     55  31  39 W31G37    29.74R
GREAT FALLS    SUNNY     61  24  24 W20G29    29.75F
HELENA         CLOUDY    61  26  26 W14G24    29.80F
AUGUSTA          N/A     55  25  31 W29G37    29.77S
BOWMANS CRNR     N/A     55  23  29 SW17      29.77S
CHOTEAU          N/A     59  23  25 SW14G26   29.76S
CONRAD           N/A     61  28  28 SW7       29.79R
FAIRFIELD        N/A     57  24  27 W23G32    29.75S
POWER            N/A     58  25  28 SW24G32   29.75S
RAYNESFORD       N/A     59  24  26 W16G28    29.77F
$$

MTZ011-013-016-021-045-047-050-051-222100-
NORTH CENTRAL MONTANA

CITY           SKY/WX    TMP DP  RH WIND       PRES   REMARKS
HAVRE          SUNNY     62  33  33 W22G29    29.71F
LEWISTOWN      SUNNY     62  23  22 W10G24    29.77S
N BAR RANCH      N/A     64  14  14 VRB7G20   29.79S
CHINOOK          N/A     63  30  29 W17G25    29.71F
DENTON           N/A     60  25  25 W17G25    29.73F
FORT BENTON      N/A     63  25  23 MISG      29.76S
GEYSER           N/A     59  25  27 W16G25    29.76F
GRASS RANGE      N/A     62  24  23 W14G20    29.73R
STANFORD         N/A     60  18  19 W12       29.77F
WINIFRED         N/A     61  22  22 W14G21    29.76S
$$

MTZ017>020-022>027-061-062-222100-
NORTHEAST MONTANA

CITY           SKY/WX    TMP DP  RH WIND       PRES   REMARKS
GLASGOW        SUNNY     51  36  56 SE6       29.77S
JORDAN           N/A     59  38  45 S3        29.76F
SIDNEY         CLOUDY   N/A N/A N/A SE6       29.81F
WOLF POINT     CLOUDY    52  36  54 CALM      29.78F
MALTA          SUNNY     57  39  51 CALM      29.74S
PLENTYWOOD       N/A     39  30  70 S10       29.80F
POPLAR           N/A     52  36  54 S3        29.79F
$$

MTZ028>42-056>058-222100-
SOUTHCENTRAL AND SOUTHEAST MONTANA

CITY           SKY/WX    TMP DP  RH WIND       PRES   REMARKS
BAKER          CLOUDY    51  36  56 SW7       29.81F
BILLINGS       CLOUDY    60  40  47 NE3       29.79F
LIVINGSTON     SUNNY     63  28  26 SW23G30   29.78F
MILES CITY     CLOUDY    52  38  58 W5        29.79F
BIG TIMBER     MOSUNNY   63  32  31 W15       29.81F
FORSYTH          N/A     55  39  54 SW5       29.78F
HARLOWTON        N/A     60  33  35 W22G35    29.78F
LAUREL           N/A     61  40  45 NE5       29.79F
$$

REGIONAL REPORTS...DAKOTAS

CITY           SKY/WX    TMP DP  RH WIND       PRES   REMARKS
WILLISTON      MOSUNNY   46  31  55 S7        29.83F
MINOT          CLOUDY    38  28  67 SE15G29   29.94F WCI  29
DICKINSON      CLOUDY    50  33  52 S18       29.81F
BEACH            N/A    N/A N/A N/A MISG        N/A
TIOGA          CLOUDY    36  34  93 SE18      29.86F WCI  25
WATFORD CITY     N/A     45  32  61 S10       29.84F
BISMARCK       CLOUDY    47  28  47 S24G32    29.96F
GRAND FORKS    CLOUDY    32   8  36 S24G33    30.25F WCI  19
FARGO          CLOUDY    32  14  47 SE24G33   30.26F WCI  19
BUFFALO SD       N/A     53  37  54 S8        29.75F
RAPID CITY     CLOUDY    64  39  39 S21       29.76F
$$

REGIONAL REPORTS...WYOMING/IDAHO/WASHINGTON

CITY           SKY/WX    TMP DP  RH WIND       PRES   REMARKS
GILLETTE         N/A     60  39  45 N14       29.83R
SHERIDAN       CLOUDY    54  40  59 S6        29.83F
BUFFALO WY     CLOUDY    53  39  59 N3        29.86F
CODY           CLOUDY    64  26  23 W8        29.82F
YELLOWSTONE LA   N/A     44  27  51 VRB5      29.94F
IDAHO FALLS    PTSUNNY   49  37  63 SW18      29.94F
SALMON         MOSUNNY   54  32  43 NE3       29.84F
BOISE          MOSUNNY   57  35  43 SW7       29.89F
SPOKANE        PTSUNNY   51  39  63 SW8       29.85F
$$

REGIONAL REPORTS...ALBERTA

CITY           SKY/WX    TMP DP  RH WIND       PRES   REMARKS
EDMONTON       FLURRIES  30  25  80 NW9       29.61S WCI  22
CALGARY        MOSUNNY   52  34  50 N7        29.60S
LETHBRIDGE     MOSUNNY   59  28  31 W33G46    29.66R
MEDICINE HAT   MOSUNNY   63  28  27 SW32G39   29.62S
WATERTON GATE    N/A     50  28  43 SW33G53     N/A
CARDSTON         N/A     54  28  37 W18G25      N/A
MILK RIVER       N/A     61  25  25 W21G32      N/A
$$

REGIONAL REPORTS...SASKATCHEWAN

CITY           SKY/WX    TMP DP  RH WIND       PRES   REMARKS
SWIFT CURRENT  SUNNY     57  34  41 SW17G29   29.62F
REGINA         CLOUDY    34  27  75 SE22G31   29.78F WCI  22
SASKATOON      CLOUDY    34  28  80 SE17      29.68F WCI  23
VAL MARIE        N/A     57  37  47 SW13        N/A
ROCKGLEN         N/A     46  34  61 SW14G21     N/A
ASSINIBOIA       N/A     28  25  86 NE7         N/A  WCI  21
$$




USA.gov is the U.S. government's official web portal to all federal, state and local government web resources and services.